Regional Weather Roundup
Issued by NWS

Home | Current Version | Previous Version | Text Only | Print | Product List | Glossary On
Versions: 1 2 3 4 5 6 7 8 9 10 11 12 13 14 15 16 17 18 19 20 21 22 23 24 25 26 27 28 29 30 31 32 33 34 35 36 37 38 39 40 41 42 43 44 45 46 47 48 49 50
000
ASUS45 KREV 242110
RWRNV
NEVADA REGIONAL WEATHER ROUNDUP
NATIONAL WEATHER SERVICE RENO NV
200 PM PDT WED AUG 24 2016

NOTE: "FAIR" INDICATES FEW OR NO CLOUDS BELOW 12,000 FEET WITH NO
SIGNIFICANT WEATHER AND/OR OBSTRUCTIONS TO VISIBILITY.

NVZ001-003-004-242200-
WESTERN NEVADA

CITY           SKY/WX    TMP DP  RH WIND       PRES   REMARKS
RENO           MOSUNNY   88  20   8 N10       30.13F
CARSON CITY    FAIR      86  12   6 NW12G21   30.17F
MINDEN         FAIR      88  18   7 W15G23    30.17F
PYRAMID LAKE     N/A     77 N/A N/A N8          N/A
FALLON         MOSUNNY   88  24  10 W9        30.11F
LOVELOCK       SUNNY     87  21   9 VRB5      30.10F
HAWTHORNE        N/A    N/A N/A N/A MISG        N/A
$$

NVZ002-CAZ072-073-242200-
NORTHERN AND CENTRAL SIERRA

CITY           SKY/WX    TMP DP  RH WIND       PRES   REMARKS
S. LAKE TAHOE  SUNNY     78  16   9 VRB7G17   30.29F
TRUCKEE        SUNNY     81  19  10 W12G20    30.27F
SQUAW VLY 8000 NOT AVBL
SUSANVILLE     SUNNY     88  21   8 SW6       30.13F
MAMMOTH LAKES  FAIR      79  22  12 SW13G22   30.33F
BRIDGEPORT       N/A     80  11   7 W21G29    30.31S
$$

NVZ030-031-036-242200-
NORTHERN NEVADA

CITY           SKY/WX    TMP DP  RH WIND       PRES   REMARKS
ELKO           SUNNY     82   8   6 VRB5G20   30.17F
WINNEMUCCA     SUNNY     84  17   8 W6G16     30.14F
WENDOVER       SUNNY     81  25  12 SE13      30.13F
$$

NVZ035-037-242200-
CENTRAL NEVADA

CITY           SKY/WX    TMP DP  RH WIND       PRES   REMARKS
ELY            SUNNY     81  17   9 NW13      30.21F
EUREKA           N/A     82  18   9 VRB5      30.20F
$$

NVZ013-014-242200-
SOUTH CENTRAL NEVADA

CITY           SKY/WX    TMP DP  RH WIND       PRES   REMARKS
TONOPAH        SUNNY     87  18   8 W17G28    30.19F
$$

NVZ017-020-022-242200-
SOUTHERN NEVADA

CITY           SKY/WX    TMP DP  RH WIND       PRES   REMARKS
LAS VEGAS      MOSUNNY   99  41  13 N6        29.92F
N. LAS VEGAS   SUNNY     96  49  20 E8        29.95F
NELLIS AFB     SUNNY     95  51  22 CALM      29.93F
HENDERSON      SUNNY     98  46  17 NE6       29.98F
MERCURY        SUNNY     96  34  11 SW14      30.03F
$$



USA.gov is the U.S. government's official web portal to all federal, state and local government web resources and services.